Content
SEND FEEDBACK

Daily
Averages
Monthly
Summary
United Kingdom

BELFAST, NORTHERN IRELAND


Home > Europe > United Kingdom > Northern Ireland
Elevation: 16 feet     Latitude: 54 36N     Longitude: 005 53W

WEATHER
 
SELECT A DAY
Number of Records: 190,544;   Date Range: 7/1/96 - 7/23/14
 
SHARE

PRINT THIS DATA

[ ← Previous Day ]
WEATHER ALMANAC - MARCH 5, 2013
[ Next Day → ]
[ °C ]   °F
Weather ElementAverageHighLow
Temperature40.1 °F46.4 °F (11:50 am)30.2 °F (6:50 am)
Dewpoint35.4 °F39.2 °F (12:20 pm)28.4 °F (6:50 am)
Humidity84 %100 % (7:50 am)71 % (11:50 am)
Barometer29.64 in29.68 in (6:50 am)29.59 in (7:20 pm)
Wind Speed5.9 mph13.8 mph (2:50 pm)
Weather ElementAverage
Visibility3.1 mi
Wind DirectionNE (41.6 °)

Weather ElementTotal
Precipitation---
Heating Degree Days26.7 (Base 65)
Averaged from 31 records on March 5, 2013
WEATHER CONDITIONS BREAKOUT
WIND DIRECTION BREAKOUT
WEATHER BY HOUR - MARCH 5, 2013
[ °C ]   °F
Local TimeTemperatureDewpointHumidityBarometerVisibilityWind DirectionWind SpeedGust SpeedPrecipitationEventsConditions
6:50 AM30.2 °F28.4 °F93 %29.68 in4.3 miCalmFogFog
7:20 AM30.2 °F28.4 °F93 %29.68 in4.3 miCalmFogFog
7:50 AM30.2 °F30.2 °F100 %29.68 in4.3 miCalmFogFog
8:20 AM32.0 °F30.2 °F93 %29.68 in4.3 miVariable2.3 mphFogFog
8:50 AM33.8 °F32.0 °F93 %29.68 in4.3 miCalmScattered Clouds
9:20 AM37.4 °F33.8 °F87 %29.68 in4.3 miWest (270°)2.3 mphScattered Clouds
9:50 AM39.2 °F35.6 °F87 %29.68 in4.3 miNW (320°)3.5 mphScattered Clouds
10:20 AM41.0 °F37.4 °F87 %29.68 in4.3 miVariable2.3 mphScattered Clouds
10:50 AM44.6 °F37.4 °F76 %29.68 in4.3 miNE (50°)4.6 mphScattered Clouds
11:20 AM44.6 °F37.4 °F76 %29.68 in4.3 miNorth (10°)5.8 mphScattered Clouds
11:50 AM46.4 °F37.4 °F71 %29.68 in3.7 miVariable4.6 mphScattered Clouds
12:20 PM44.6 °F39.2 °F81 %29.65 in3.7 miNNE (20°)10.4 mphScattered Clouds
12:50 PM46.4 °F39.2 °F76 %29.65 in3.1 miNNE (20°)12.7 mphHaze
1:20 PM46.4 °F39.2 °F76 %29.65 in3.1 miNNE (20°)12.7 mphHaze
1:50 PM46.4 °F39.2 °F76 %29.65 in3.1 miNNE (20°)11.5 mphHaze
2:20 PM46.4 °F39.2 °F76 %29.62 in3.1 miNNE (20°)11.5 mphHaze
2:50 PM44.6 °F37.4 °F76 %29.62 in2.5 miNNE (20°)13.8 mphHaze
3:20 PM44.6 °F37.4 °F76 %29.62 in2.5 miNNE (20°)11.5 mphHaze
3:50 PM42.8 °F37.4 °F81 %29.62 in2.5 miNNE (20°)10.4 mphHaze
4:20 PM44.6 °F37.4 °F76 %29.62 in2.5 miNE (40°)9.2 mphHaze
4:50 PM44.6 °F37.4 °F76 %29.62 in2.5 miNE (40°)6.9 mphHaze
5:20 PM42.8 °F35.6 °F76 %29.62 in2.5 miNNE (30°)5.8 mphHaze
5:50 PM39.2 °F35.6 °F87 %29.62 in2.5 miNE (50°)6.9 mphHaze
6:20 PM39.2 °F35.6 °F87 %29.62 in1.9 miNE (50°)4.6 mphHaze
6:50 PM37.4 °F33.8 °F87 %29.62 in1.6 miNE (50°)4.6 mphHaze
7:20 PM35.6 °F33.8 °F93 %29.59 in2.2 miNE (50°)5.8 mphHaze
7:50 PM39.2 °F35.6 °F87 %29.62 in2.2 miVariable2.3 mphHaze
8:20 PM37.4 °F35.6 °F93 %29.62 in2.2 miEast (90°)3.5 mphHaze
8:50 PM37.4 °F33.8 °F87 %29.62 in2.2 miENE (60°)6.9 mphHaze
9:20 PM37.4 °F33.8 °F87 %29.62 in2.2 miVariable2.3 mphHaze
9:50 PM35.6 °F33.8 °F93 %29.62 in2.2 miNNE (20°)3.5 mphHaze
Hourly data recorded from EGAC, located miles away from Belfast, Northern Ireland







STORIES FROM OUR PARTNERS